Powrót do katalogu

KSM1-B

AktywnyMilitariaVLEO
NORAD 46914·PAYLOAD·🇱🇺 Luxembourg

Wystrzelony Nov 7, 2020 z Satish Dhawan Space Centre

Loading…

Następne Przeloty (najbliższe 24 godziny)

TLE

ŚwieżeSource: Space-Track

Epoka: Sep 14, 2026, 09:36 UTC

1 46914U 20081K   26257.40009236  .00006109  00000-0  23839-3 0  9995
2 46914  36.9010 239.2504 0005526 285.9449  74.0691 15.25607956325811

Śledź KSM1-B w czasie rzeczywistym z AllMySat

Download on the App Store